Waarnemingen

Advertentie
Mijn weer
Bujaraloz, Spanje (8165): temperatuur & dauwpunt: 15.08.2018 06:00:00 - 21.08.2018 06:00:00 (CEST)Bujaraloz, Spanje (8165): windsnelheid & windstoten: 15.08.2018 06:00:00 - 21.08.2018 06:00:00 (CEST)Bujaraloz, Spanje (8165): windrichting: 15.08.2018 06:00:00 - 21.08.2018 06:00:00 (CEST)Bujaraloz, Spanje (8165): luchtdruk: 15.08.2018 06:00:00 - 21.08.2018 06:00:00 (CEST)Bujaraloz, Spanje (8165): zicht: 15.08.2018 06:00:00 - 21.08.2018 06:00:00 (CEST)Bujaraloz, Spanje (8165): Zonneschijnduur: 15.08.2018 06:00:00 - 21.08.2018 06:00:00 (CEST)Bujaraloz, Spanje (8165): neerslag: 15.08.2018 06:00:00 - 21.08.2018 06:00:00 (CEST)
Datum & Tijd tt [°C] td [°C] ff [km/u] ff [kn] fx [km/u] fx [kn] dd ppp [hPa] vv [km] sd [min] rr [mm]
21.08.2018 06:00:00 - - - - - - - - - - -
21.08.2018 05:00:00 21,4 15,3 23 12 31 17 W 1015,4 20 0 0,0
21.08.2018 04:00:00 21,8 15,6 26 14 35 19 W 1015,2 20 0 0,0
21.08.2018 03:00:00 22,5 15,8 29 16 33 18 W 1015,3 20 0 0,0
21.08.2018 02:00:00 23,5 13,7 19 10 24 13 W 1015,5 20 0 -
21.08.2018 01:00:00 24,8 11,7 9 5 16 9 W 1015,0 20 0 0,0
21.08.2018 00:00:00 26,5 11,8 3 1 13 7 WZW 1014,4 20 0 0,0
20.08.2018 23:00:00 27,8 9,6 9 5 14 8 W 1014,1 20 0 0,0
20.08.2018 22:00:00 29,4 9,6 14 7 16 9 W 1013,6 20 0 0,0
20.08.2018 21:00:00 30,3 9,2 15 8 18 10 W 1012,9 20 40 0,0
20.08.2018 20:00:00 32,5 8,0 13 7 21 11 W 1012,6 20 60 -
20.08.2018 19:00:00 32,7 7,6 13 7 22 12 WNW 1013,0 20 60 0,0
20.08.2018 18:00:00 33,3 9,3 10 5 26 14 WNW 1013,4 20 60 0,0
20.08.2018 17:00:00 31,6 10,9 11 6 23 12 WNW 1014,4 20 60 0,0
20.08.2018 16:00:00 31,6 12,4 9 5 22 12 WNW 1015,1 20 60 0,0
20.08.2018 15:00:00 30,5 12,8 7 4 20 11 WNW 1016,1 20 60 0,0
20.08.2018 14:00:00 29,2 12,2 11 6 26 14 WNW 1016,9 20 60 -
20.08.2018 13:00:00 26,7 13,1 16 9 31 17 W 1017,9 20 60 0,0
20.08.2018 12:00:00 25,1 13,0 20 11 29 16 WNW 1018,6 20 60 0,0
20.08.2018 11:00:00 23,8 12,7 19 10 36 20 WNW 1019,0 20 49 0,0
20.08.2018 10:00:00 22,5 12,7 26 14 45 25 W 1019,0 20 60 0,0
20.08.2018 09:00:00 21,2 12,8 29 15 39 21 W 1018,9 20 47 0,0
20.08.2018 08:00:00 20,1 13,1 23 13 29 16 W 1018,8 20 17 -
20.08.2018 07:00:00 20,2 13,5 22 12 36 20 W 1018,4 20 0 0,0
20.08.2018 06:00:00 20,4 14,0 21 11 32 18 W 1018,0 20 0 0,0
20.08.2018 05:00:00 20,9 14,0 26 14 42 23 W 1017,8 20 0 0,0
20.08.2018 04:00:00 21,4 14,8 28 15 37 20 W 1017,9 20 0 0,0
20.08.2018 03:00:00 21,6 14,7 26 14 31 17 W 1017,8 20 0 0,0
20.08.2018 02:00:00 22,1 12,3 19 10 32 17 W 1017,8 20 0 -
20.08.2018 01:00:00 24,0 11,0 25 14 29 16 WNW 1017,4 20 0 0,0
20.08.2018 00:00:00 25,6 9,4 7 4 14 7 WZW 1017,1 20 0 0,0
19.08.2018 23:00:00 26,5 10,6 11 6 16 9 W 1016,8 20 0 0,0
19.08.2018 22:00:00 28,3 10,5 14 8 16 9 W 1016,3 20 0 0,0
19.08.2018 21:00:00 29,7 10,3 7 4 12 7 W 1015,9 20 45 0,0
19.08.2018 20:00:00 31,4 9,0 10 5 14 8 W 1015,6 20 60 -
19.08.2018 19:00:00 31,2 8,8 7 4 16 8 N 1015,8 20 60 0,0
19.08.2018 18:00:00 32,3 10,3 6 4 18 10 ZW 1016,2 20 60 0,0
19.08.2018 17:00:00 30,8 10,8 11 6 29 15 W 1016,9 20 60 0,0
19.08.2018 16:00:00 30,4 10,9 9 5 21 11 W 1017,4 20 60 0,0
19.08.2018 15:00:00 28,8 11,8 9 5 20 11 NW 1018,1 20 60 0,0
19.08.2018 14:00:00 27,1 13,1 9 5 25 13 NNW 1019,0 20 60 -
19.08.2018 13:00:00 24,8 12,7 13 7 24 13 WNW 1019,8 20 60 0,0
19.08.2018 12:00:00 22,9 13,4 16 8 29 16 WNW 1020,4 20 60 0,0
19.08.2018 11:00:00 21,3 12,7 19 10 30 16 WNW 1020,9 20 51 0,0
19.08.2018 10:00:00 19,8 12,5 24 13 33 18 WNW 1021,1 20 60 0,0
19.08.2018 09:00:00 18,7 12,4 19 10 26 14 W 1021,0 20 57 0,0
19.08.2018 08:00:00 17,6 12,3 21 11 23 13 W 1020,7 20 17 -
19.08.2018 07:00:00 17,6 12,5 21 11 24 13 W 1020,4 20 0 0,0
19.08.2018 06:00:00 18,0 12,8 19 11 24 13 W 1019,9 20 0 0,0
19.08.2018 05:00:00 18,2 12,8 17 9 27 14 W 1019,9 20 0 0,0
19.08.2018 04:00:00 18,7 12,8 23 13 27 14 W 1019,5 20 0 0,0
19.08.2018 03:00:00 19,4 12,6 26 14 30 16 W 1019,3 20 0 0,0
19.08.2018 02:00:00 19,9 12,1 19 10 24 13 W 1019,0 20 0 -
19.08.2018 01:00:00 22,9 11,3 7 4 21 12 WNW 1018,8 20 0 0,0
19.08.2018 00:00:00 22,5 14,0 5 3 10 5 O 1018,6 20 0 0,0
18.08.2018 23:00:00 23,8 11,8 6 4 17 9 WNW 1018,0 20 0 0,0
18.08.2018 22:00:00 24,9 11,4 14 8 17 9 W 1017,4 20 0 0,0
18.08.2018 21:00:00 25,7 11,1 12 7 14 8 WNW 1016,8 20 45 0,0
18.08.2018 20:00:00 27,3 10,5 8 4 16 9 WNW 1016,3 20 60 -
18.08.2018 19:00:00 27,4 10,5 10 5 16 9 ZZW 1016,2 20 60 0,0
18.08.2018 18:00:00 27,9 10,5 4 2 22 12 ZZW 1016,3 20 60 0,0
18.08.2018 17:00:00 27,6 10,3 6 3 22 12 NW 1016,9 20 60 0,0
18.08.2018 16:00:00 25,6 10,6 12 6 23 13 NW 1017,6 20 60 0,0
18.08.2018 15:00:00 25,8 10,0 13 7 27 14 W 1018,4 20 60 0,0
18.08.2018 14:00:00 23,2 9,2 10 6 30 16 NW 1019,1 20 60 -
18.08.2018 13:00:00 22,0 9,8 16 9 29 16 NW 1019,7 20 60 0,0
18.08.2018 12:00:00 20,6 9,8 18 10 29 15 WNW 1020,2 20 60 0,0
18.08.2018 11:00:00 19,5 9,7 19 11 41 22 WNW 1020,7 20 50 0,0
18.08.2018 10:00:00 18,2 9,8 32 18 40 22 W 1020,7 20 60 0,0
18.08.2018 09:00:00 17,0 9,4 27 14 37 20 W 1020,6 20 55 0,0
18.08.2018 08:00:00 15,9 9,6 21 12 36 20 W 1020,7 20 15 -
18.08.2018 07:00:00 15,9 9,6 28 15 36 19 W 1020,1 20 0 0,0
18.08.2018 06:00:00 16,1 9,8 26 14 37 20 W 1019,8 20 0 0,0
18.08.2018 05:00:00 16,1 9,9 23 12 35 19 W 1020,0 20 0 0,0
18.08.2018 04:00:00 16,7 10,0 29 16 36 19 W 1019,7 20 0 0,0
18.08.2018 03:00:00 17,3 10,2 27 14 39 21 W 1019,8 20 0 0,0
18.08.2018 02:00:00 17,8 9,9 30 16 41 22 W 1019,6 20 0 -
18.08.2018 01:00:00 18,5 9,6 30 16 44 24 W 1019,4 20 0 0,0
18.08.2018 00:00:00 19,8 9,9 36 19 52 28 W 1018,5 20 0 0,0
17.08.2018 23:00:00 21,4 11,1 41 22 53 29 W 1017,5 20 0 0,0
17.08.2018 22:00:00 23,0 12,6 16 9 26 14 W 1016,6 20 0 0,0
17.08.2018 21:00:00 23,8 15,1 12 6 46 25 NO 1016,3 20 0 0,0
17.08.2018 20:00:00 25,7 13,3 35 19 49 27 WNW 1014,9 20 6 -
17.08.2018 19:00:00 27,3 15,0 24 13 36 19 NW 1014,2 20 14 0,0
17.08.2018 18:00:00 28,0 14,6 22 12 47 26 NW 1014,0 20 35 0,0
17.08.2018 17:00:00 28,0 14,2 29 16 43 23 WNW 1013,8 20 60 0,0
17.08.2018 16:00:00 28,1 14,3 26 14 41 22 WNW 1014,3 20 60 0,0
17.08.2018 15:00:00 27,4 14,4 23 12 41 22 WNW 1015,2 20 60 0,0
17.08.2018 14:00:00 26,3 14,0 29 16 39 21 WNW 1015,9 20 60 -
17.08.2018 13:00:00 24,9 14,3 25 13 37 20 NW 1016,7 20 60 0,0
17.08.2018 12:00:00 23,5 14,8 23 12 37 20 WNW 1017,0 20 60 0,0
17.08.2018 11:00:00 22,6 14,7 29 16 43 23 W 1016,9 20 48 0,0
17.08.2018 10:00:00 21,0 15,5 29 16 42 23 W 1016,5 20 60 0,0
17.08.2018 09:00:00 19,7 16,1 18 10 27 14 W 1016,8 20 37 0,0
17.08.2018 08:00:00 19,1 16,5 16 9 27 15 W 1016,6 20 0 -
17.08.2018 07:00:00 19,2 17,0 18 10 26 14 W 1016,0 20 0 0,0
17.08.2018 06:00:00 20,0 17,2 11 6 35 19 W 1015,5 20 0 0,0
17.08.2018 05:00:00 19,4 18,4 22 12 28 15 W 1014,8 20 0 0,0
17.08.2018 04:00:00 19,5 17,9 10 5 29 16 WNW 1015,2 20 0 0,0
17.08.2018 03:00:00 20,3 18,4 20 11 28 15 WZW 1015,3 20 0 0,0
17.08.2018 02:00:00 20,8 18,5 8 4 21 12 W 1015,7 20 0 -
17.08.2018 01:00:00 20,9 18,5 11 6 17 9 WZW 1015,1 20 0 0,2
17.08.2018 00:00:00 20,6 17,2 14 7 38 21 W 1014,8 20 0 0,2
16.08.2018 23:00:00 20,9 18,3 22 12 51 28 W 1014,6 20 0 0,0
16.08.2018 22:00:00 24,8 17,3 23 12 33 18 WNW 1013,2 20 0 0,0
16.08.2018 21:00:00 25,8 16,0 13 7 40 22 WZW 1011,0 20 0 0,0
16.08.2018 20:00:00 - - - - - - - - - - -
16.08.2018 19:00:00 27,7 18,4 10 6 32 17 NNO 1010,0 20 0 0,0
16.08.2018 18:00:00 29,7 16,8 22 12 41 22 ZO 1009,9 20 33 0,0
16.08.2018 17:00:00 32,4 17,9 18 10 36 19 ZO 1009,9 19 60 0,0
16.08.2018 16:00:00 33,2 17,0 8 4 18 10 N 1010,3 20 60 0,0
16.08.2018 15:00:00 31,2 17,9 8 4 15 8 NO 1011,0 20 60 0,0
16.08.2018 14:00:00 29,8 18,5 8 4 16 9 NNO 1012,0 20 60 -
16.08.2018 13:00:00 29,6 19,6 5 3 15 8 ONO 1012,6 20 60 0,0
16.08.2018 12:00:00 26,9 19,5 4 2 10 5 O 1013,2 20 60 0,0
16.08.2018 11:00:00 25,8 19,7 3 2 14 8 ZZW 1013,8 20 48 0,0
16.08.2018 10:00:00 24,1 20,5 7 4 10 6 Z 1013,9 20 46 0,0
16.08.2018 09:00:00 23,1 20,3 3 1 8 4 Z 1013,6 20 43 0,0
16.08.2018 08:00:00 22,0 19,9 6 3 15 8 O 1013,7 20 4 -
16.08.2018 07:00:00 22,1 20,1 12 6 22 12 ONO 1013,7 20 0 0,0
16.08.2018 06:00:00 22,3 20,1 14 8 21 11 O 1013,2 20 0 0,0
16.08.2018 05:00:00 22,8 20,5 16 8 23 12 O 1013,2 20 0 0,0
16.08.2018 04:00:00 22,9 20,5 14 8 22 12 ONO 1013,5 20 0 0,0
16.08.2018 03:00:00 22,9 20,5 15 8 20 11 O 1013,8 20 0 0,0
16.08.2018 02:00:00 23,4 20,0 14 8 19 11 O 1013,9 20 0 -
16.08.2018 01:00:00 23,8 19,9 16 9 22 12 O 1013,7 20 0 0,0
16.08.2018 00:00:00 24,6 19,8 12 7 21 11 O 1013,8 20 0 0,0
15.08.2018 23:00:00 25,8 18,7 13 7 27 15 ZO 1013,5 20 0 0,0
15.08.2018 22:00:00 27,4 17,5 18 10 28 15 ZO 1012,8 20 0 0,0
15.08.2018 21:00:00 28,9 16,5 19 10 27 15 OZO 1012,1 20 45 0,0
15.08.2018 20:00:00 31,3 11,7 1 1 8 4 O 1011,6 20 60 -
15.08.2018 19:00:00 30,9 11,8 5 3 11 6 NNO 1012,0 20 60 0,0
15.08.2018 18:00:00 30,7 13,5 5 3 13 7 NNO 1012,8 20 60 0,0
15.08.2018 17:00:00 29,8 12,6 6 3 16 9 O 1013,5 20 60 0,0
15.08.2018 16:00:00 29,1 14,5 6 3 14 8 OZO 1014,2 20 60 0,0
15.08.2018 15:00:00 28,2 13,7 6 3 21 11 W 1015,3 20 60 0,0
15.08.2018 14:00:00 26,3 13,8 13 7 24 13 ZW 1016,3 20 60 -
15.08.2018 13:00:00 25,4 13,3 12 6 23 12 ZW 1017,1 20 60 0,0
15.08.2018 12:00:00 23,3 12,6 12 6 34 18 NW 1017,9 20 60 0,0
15.08.2018 11:00:00 21,4 12,7 16 9 30 16 WNW 1018,3 20 47 0,0
15.08.2018 10:00:00 20,4 12,6 16 9 35 19 W 1018,5 20 60 0,0
15.08.2018 09:00:00 19,4 12,4 18 10 28 15 W 1018,6 20 60 0,0
15.08.2018 08:00:00 18,3 12,3 16 8 26 14 WZW 1018,3 20 34 -
15.08.2018 07:00:00 18,3 12,1 21 12 28 15 W 1017,9 20 0 0,0
15.08.2018 06:00:00 18,5 12,0 21 12 29 16 W 1017,8 20 0 0,0

tt = temperatuur
td = dauwpunt
ff = windsnelheid
fx = windstoten
dd = windrichting
ppp = luchtdruk
vv = zicht
sd = Zonneschijnduur
rr = neerslag

Weerstations in de omgeving